Weather History for Yakutat, AK

Change the Weather History Date:

Saturday, May 17, 2014

  Actual Average Record
Temperature  
Mean Temperature 51 °F 45 °F  
Max Temperature 68 °F 53 °F 68 °F (2014)
Min Temperature 34 °F 37 °F 25 °F (1971)
Degree Days  
Heating Degree Days 14 20  
Month to date heating degree days 286 371  
Since 1 July heating degree days 8005 8338  
Cooling Degree Days 0    
Month to date cooling degree days 0  
Year to date cooling degree days 0  
Growing Degree Days 1 (Base 50)    
Moisture  
Dew Point 41 °F    
Average Humidity 0    
Maximum Humidity 0    
Minimum Humidity 0    
Precipitation  
Precipitation 0.00 in 0.28 in 2.22 in (2013)
Month to date precipitation T 4.56  
Year to date precipitation 34.98 49.31  
Snow  
Snow 0.00 in 0.00 in T in (1986)
Month to date snowfall 0.0 0.4  
Since 1 July snowfall 109.0 140.0  
Snow Depth 0.00 in    
Sea Level Pressure  
Sea Level Pressure 29.93 in    
Wind  
Wind Speed 4 mph (South)    
Max Wind Speed 10 mph    
Max Gust Speed 13 mph    
Visibility 5 miles    
Events Fog    
T = Trace of Precipitation, MM = Missing Value Source: NWS Daily Summary

Daily Weather History Graph

Daily Weather History Graph

Search for Another Location

Airport:

Trip Planner

Search our weather history database for the weather conditions in past years. The results will help you decide how hot, cold, wet, or windy it might be!

Date:

Astronomy

May. 17, 2014 Rise Set
Actual Time 4:39 AM AKDT 9:52 PM AKDT
Civil Twilight 3:36 AM AKDT 10:55 PM AKDT
Nautical Twilight 1:47 AM AKDT 12:42 AM AKDT
Astronomical Twilight Sun does not rise Sun does not rise
Moon 12:01 AM AKDT (5/17) 7:35 AM AKDT (5/17)
Length of Visible Light 19h 19m
Length of Day
17h 12m
Waning Gibbous, 88% of the Moon is Illuminated
May 17
Waning Gibbous
May 21
Last Quarter
May 28
New
Jun 5
First Quarter
Jun 12
Full

Hourly Weather History & Observations

Time (AKDT) Temp. Windchill Dew Point Humidity Pressure Visibility Wind Dir Wind Speed Gust Speed Precip Events Conditions
12:45 AM 39.2 °F - 39.2 °F 100% 29.93 in 1.8 mi Calm Calm - N/A   Clear
12:53 AM 39.9 °F - 37.9 °F 93% 29.94 in 1.2 mi Calm Calm - N/A   Clear
12:55 AM 39.2 °F - 37.4 °F 93% 29.93 in 1.5 mi Calm Calm - N/A   Partly Cloudy
12:58 AM 39.2 °F - 39.2 °F 100% 29.93 in 1.0 mi Calm Calm - N/A   Mist
1:14 AM 39.2 °F - 37.4 °F 93% 29.93 in 0.5 mi Calm Calm - N/A Fog Fog
1:27 AM 37.4 °F - 37.4 °F 100% 29.93 in 0.5 mi Calm Calm - N/A Fog Fog
1:44 AM 37.4 °F - 37.4 °F 100% 29.93 in 0.2 mi Calm Calm - N/A Fog Fog
1:53 AM 37.0 °F - 37.0 °F 100% 29.94 in 0.2 mi Calm Calm - N/A Fog Fog
2:00 AM 37.4 °F - 35.6 °F 93% 29.94 in 0.2 mi Calm Calm - N/A Fog Fog
2:41 AM 37.4 °F - 37.4 °F 100% 29.93 in 0.2 mi Calm Calm - N/A Fog Fog
2:53 AM 37.9 °F - 37.9 °F 100% 29.93 in 0.2 mi Calm Calm - N/A Fog Fog
3:33 AM 37.4 °F - 37.4 °F 100% 29.93 in 0.2 mi Calm Calm - N/A Fog Fog
3:40 AM 37.4 °F 34.9 °F 37.4 °F 100% 29.93 in 0.2 mi ENE 3.5 mph - N/A Fog Fog
3:53 AM 37.9 °F - 37.9 °F 100% 29.93 in 0.2 mi Calm Calm - N/A Fog Fog
4:11 AM 37.4 °F - 37.4 °F 100% 29.93 in 0.5 mi Calm Calm - N/A Fog Fog
4:23 AM 33.8 °F - 33.8 °F 100% 29.93 in 0.5 mi Calm Calm - N/A Fog Fog
4:53 AM 34.0 °F - 34.0 °F 100% 29.93 in 0.5 mi Calm Calm - N/A Fog Fog
5:53 AM 35.1 °F - 35.1 °F 100% 29.94 in 0.5 mi Calm Calm - N/A Fog Fog
6:00 AM 35.6 °F - 35.6 °F 100% 29.93 in 0.5 mi Calm Calm - N/A Fog Fog
6:46 AM 39.2 °F - 39.2 °F 100% 29.92 in 6.0 mi Calm Calm - N/A Fog Patches of Fog
6:53 AM 41.0 °F - 41.0 °F 100% 29.93 in 10.0 mi Calm Calm - N/A   Partly Cloudy
7:53 AM 52.0 °F - 48.0 °F 86% 29.92 in 10.0 mi Calm Calm - N/A   Partly Cloudy
8:53 AM 59.0 °F - 43.0 °F 55% 29.91 in 10.0 mi Calm Calm - N/A   Partly Cloudy
9:53 AM 66.9 °F - 44.1 °F 44% 29.91 in 10.0 mi Calm Calm - N/A   Clear
10:53 AM 66.9 °F - 42.1 °F 40% 29.91 in 10.0 mi WSW 8.1 mph - N/A   Clear
11:53 AM 64.9 °F - 41.0 °F 42% 29.93 in 10.0 mi SW 8.1 mph - N/A   Clear
12:53 PM 64.0 °F - 36.0 °F 35% 29.94 in 10.0 mi Variable 6.9 mph - N/A   Clear
1:53 PM 63.0 °F - 37.9 °F 40% 29.94 in 10.0 mi SSE 9.2 mph - N/A   Clear
2:53 PM 60.1 °F - 42.1 °F 51% 29.94 in 10.0 mi South 6.9 mph - N/A   Clear
3:53 PM 57.9 °F - 46.0 °F 65% 29.94 in 10.0 mi Variable 5.8 mph - N/A   Clear
4:53 PM 55.0 °F - 48.9 °F 80% 29.94 in 10.0 mi SSE 5.8 mph - N/A   Clear
5:53 PM 48.9 °F - 46.0 °F 90% 29.94 in 10.0 mi SW 8.1 mph - N/A   Mostly Cloudy
6:35 PM 48.2 °F - 46.4 °F 93% 29.93 in 10.0 mi SSW 5.8 mph - N/A   Mostly Cloudy
6:51 PM 48.2 °F - 44.6 °F 87% 29.92 in 10.0 mi SSW 5.8 mph - N/A   Scattered Clouds
6:53 PM 48.0 °F - 45.0 °F 89% 29.93 in 10.0 mi SSW 5.8 mph - N/A   Scattered Clouds
6:57 PM 46.4 °F 43.5 °F 44.6 °F 93% 29.92 in 10.0 mi SSW 5.8 mph - N/A   Mostly Cloudy
7:53 PM 46.9 °F - 45.0 °F 93% 29.93 in 10.0 mi SSE 3.5 mph - N/A   Overcast
8:53 PM 46.0 °F 44.8 °F 45.0 °F 96% 29.92 in 10.0 mi SSW 3.5 mph - N/A   Overcast
9:27 PM 44.6 °F 42.2 °F 44.6 °F 100% 29.92 in 1.8 mi SSW 4.6 mph - N/A   Overcast
9:37 PM 44.6 °F - 44.6 °F 100% 29.92 in 1.0 mi Calm Calm - N/A   Overcast
9:43 PM 44.6 °F 43.1 °F 44.6 °F 100% 29.92 in 2.0 mi South 3.5 mph - N/A   Overcast
9:51 PM 44.6 °F 41.4 °F 44.6 °F 100% 29.92 in 4.0 mi South 5.8 mph - N/A   Overcast
9:53 PM 45.0 °F 41.2 °F 44.1 °F 97% 29.92 in 4.0 mi South 6.9 mph - N/A   Overcast
10:53 PM 45.0 °F 42.6 °F 44.1 °F 97% 29.93 in 6.0 mi South 4.6 mph - N/A   Overcast
11:53 PM 45.0 °F - 44.1 °F 97% 29.93 in 7.0 mi Calm Calm - N/A   Overcast